Retour au catalogue

SL-8 R/B

ActifLEO
NORAD 7686·ROCKET BODY·🇷🇺 Russia

Lancé Feb 28, 1975 depuis Plesetsk Cosmodrome

Loading…

Prochains Passages (prochaines 24 heures)

TLE

FraisSource: Space-Track

Époque: Sep 14, 2026, 09:48 UTC

1 07686U 75016J   26257.40880075  .00000057  00000-0  64929-3 0  9995
2 07686  73.9997  53.1618 0163926 157.9628 231.2454 12.21129260297131

Suivez SL-8 R/B en temps réel avec AllMySat

Download on the App Store